This is the latest recevied weather packets stored in our database for station/object KC5DAQ-22. If no packets are shown the sender has not sent any weather packets the latest 10 day(s).
| Time | Temp. | Humidity | Pressure | Rain* | Wind** | Luminosity | Snow |
|---|---|---|---|---|---|---|---|
| 1777677082 | 15° C | 95% | 1010.4 hPa | 0.25 mm | - | 14 W/m² | - |
| 1777677020 | 15° C | 95% | 1010.2 hPa | 0.25 mm | - | 12 W/m² | - |
| 1777676958 | 15° C | 95% | 1010 hPa | 0.25 mm | - | 12 W/m² | - |
| 1777676896 | 15° C | 95% | 1010 hPa | 0.25 mm | - | 12 W/m² | - |
| 1777676835 | 15° C | 95% | 1009.8 hPa | 0.25 mm | - | 9 W/m² | - |
| 1777676774 | 15.56° C | 95% | 1009.8 hPa | 0.25 mm | - | 9 W/m² | - |
| 1777676712 | 15.56° C | 95% | 1009.8 hPa | 0.25 mm | - | 7 W/m² | - |
| 1777676651 | 15.56° C | 95% | 1009.8 hPa | 0.25 mm | - | 7 W/m² | - |
| 1777676591 | 15.56° C | 95% | 1009.8 hPa | 0.25 mm | - | 7 W/m² | - |
| 1777676528 | 15.56° C | 95% | 1009.7 hPa | 0.25 mm | - | 9 W/m² | - |
| 1777676468 | 15.56° C | 95% | 1009.6 hPa | 0.25 mm | - | 9 W/m² | - |
| 1777676407 | 15.56° C | 95% | 1009.4 hPa | 0.25 mm | - | 9 W/m² | - |
| 1777676346 | 15.56° C | 95% | 1009.4 hPa | 0.25 mm | - | 12 W/m² | - |
| 1777676288 | 15.56° C | 95% | 1009.1 hPa | 0.25 mm | - | 12 W/m² | - |
| 1777676226 | 15.56° C | 95% | 1008.9 hPa | 0.25 mm | - | 21 W/m² | - |
| 1777676167 | 15.56° C | 96% | 1008.8 hPa | 0.25 mm | - | 28 W/m² | - |
| 1777676106 | 15.56° C | 96% | 1008.6 hPa | 0.25 mm | - | 28 W/m² | - |
| 1777676048 | 15.56° C | 96% | 1008.4 hPa | 0.25 mm | - | 30 W/m² | - |
| 1777675987 | 15.56° C | 96% | 1008.3 hPa | 0.25 mm | - | 32 W/m² | - |
| 1777675925 | 15.56° C | 96% | 1008.3 hPa | 0.51 mm | - | 33 W/m² | - |
| 1777675867 | 15.56° C | 96% | 1008.3 hPa | 0.51 mm | - | 33 W/m² | - |
| 1777675805 | 15.56° C | 96% | 1008.3 hPa | 0.51 mm | - | 33 W/m² | - |
| 1777675746 | 15.56° C | 96% | 1008.3 hPa | 0.51 mm | - | 33 W/m² | - |
| 1777675687 | 15.56° C | 96% | 1008.4 hPa | 0.51 mm | - | 32 W/m² | - |
| 1777675626 | 15.56° C | 96% | 1008.5 hPa | 0.76 mm | - | 30 W/m² | - |
* Rain latest hour (hover to see other rain measurements)
** Current wind speed in m/s (hover to see current wind gust speed)